Content
SEND FEEDBACK

Daily
Averages
Monthly
Summary
Canada

HARRINGTON, QUEBEC


Home > North America > Canada > Quebec
Elevation: 600 feet     Latitude: 45 51N     Longitude: 74 38W

WEATHER
 
SELECT A DAY
Number of Records: 137,293;   Date Range: 1/1/95 - 7/28/14
 
SHARE

PRINT THIS DATA

[ ← Previous Day ]
WEATHER ALMANAC - FEBRUARY 13, 2013
[ Next Day → ]
[ °C ]   °F
Weather ElementAverageHighLow
Temperature24.6 °F29.7 °F (2:00 pm)19.6 °F (7:00 am)
Dewpoint21.6 °F25.3 °F (5:00 pm)19 °F (7:00 am)
Humidity88.7 %99 % (2:00 am)58 % (1:00 pm)
Barometer29.81 in29.85 in (5:00 am)29.77 in (4:00 pm)
Wind Speed0.8 mph3.5 mph (1:00 pm)
Weather ElementAverage
Wind DirectionENE (73.5 °)

Weather ElementTotal
Precipitation---
Heating Degree Days40.4 (Base 65)
Averaged from 26 records on February 13, 2013
WEATHER CONDITIONS BREAKOUT
WIND DIRECTION BREAKOUT
WEATHER BY HOUR - FEBRUARY 13, 2013
[ °C ]   °F
Local TimeTemperatureDewpointHumidityBarometerVisibilityWind DirectionWind SpeedGust SpeedPrecipitationEventsConditions
1:00 AM23.0 °F22.0 °F96 %29.82 inCalm
1:00 AM23.0 °F22.3 °F97 %29.82 inCalm
2:00 AM22.5 °F22.1 °F99 %29.83 inCalm
3:00 AM21.6 °F21.0 °F98 %29.82 inCalm
4:00 AM20.1 °F19.6 °F98 %29.83 inCalm
5:00 AM20.1 °F19.8 °F99 %29.85 inCalm
6:00 AM19.9 °F19.6 °F99 %29.84 inCalm
7:00 AM20.0 °F19.0 °F95 %29.84 inCalm
7:00 AM19.6 °F19.2 °F99 %29.84 inCalm
8:00 AM19.9 °F19.4 °F98 %29.85 inCalm
9:00 AM22.5 °F19.6 °F89 %29.85 inWSW (240°)2.3 mph
10:00 AM24.4 °F19.0 °F80 %29.84 inSouth (180°)1.2 mph
11:00 AM26.2 °F19.6 °F76 %29.83 inCalm
12:00 PM28.2 °F20.5 °F73 %29.81 inSSW (210°)1.2 mph
1:00 PM29.0 °F20.0 °F58 %29.79 inSSW (200°)3.5 mph
1:00 PM28.9 °F19.9 °F69 %29.79 inSSW (200°)3.5 mph
2:00 PM29.7 °F19.9 °F67 %29.78 inSSW (200°)3.5 mph
4:00 PM29.7 °F22.3 °F74 %29.77 inSouth (190°)2.3 mph
5:00 PM28.8 °F25.3 °F87 %29.77 inCalm
6:00 PM27.7 °F23.9 °F86 %29.77 inSouth (190°)1.2 mph
7:00 PM26.4 °F24.6 °F93 %29.78 inCalm
7:00 PM26.0 °F25.0 °F92 %29.78 inCalm
8:00 PM26.1 °F24.4 °F94 %29.78 inCalm
9:00 PM25.5 °F24.6 °F96 %29.79 inCalm
10:00 PM25.0 °F24.3 °F97 %29.78 inEast (80°)1.2 mph
11:00 PM24.6 °F24.1 °F98 %29.78 inCalm
Hourly data recorded from CWJT, located miles away from Harrington, Quebec







STORIES FROM OUR PARTNERS